{"data":{"norad_id":81779,"epoch":"2026-05-22T21:06:01.412064Z","epoch_age_seconds":255471,"freshness":"STALE","line1":"1 81779U          26142.87918301  .00017409  00000+0  10163+1 0  9995","line2":"2 81779  54.5146 329.5571 1515978 189.5101 167.3562  9.35038304495375","mean_motion":9.35038304,"eccentricity":0.1515978,"inclination_deg":54.5146,"raan_deg":329.5571,"arg_perigee_deg":189.5101,"mean_anomaly_deg":167.3562,"bstar":1.0163,"rev_number":49537,"period_min":154.00438611336,"perigee_km":1696.394985175,"apogee_km":4582.0105221977,"semimajor_km":9517.3397536863,"source":"CELESTRAK","updated_at":"2026-05-25T13:38:11.083541Z"}}